Back to catalog

COSMOS 1275 DEB

AlivePO
NORAD 13813·DEBRIS·🇷🇺 Russia

Launched Jun 4, 1981 from Plesetsk Cosmodrome

Loading…

Next Passes (next 24 hours)

TLE

FreshSource: Space-Track

Epoch: Sep 14, 2026, 05:00 UTC

1 13813U 81053HH  26257.20842767  .00001445  00000-0  71943-3 0  9992
2 13813  82.9378 162.4096 0038311 201.2094 311.7068 14.16033437226454

Track COSMOS 1275 DEB in real time with AllMySat

Download on the App Store